SCP
0 0 0 -0 -0 -0 -0 -0 0 0 0 0 0 0 0 0 0 0 0 0 0 0 0 0 0 0 0 0 0 0 0 0 0 0 0 0 0 0 0 0 0 0 0 0 0 0 0 0 0
0 0 0 -0 -0 -0 -0 -0 0 0 0 0 0 0 0 0 0 0 0 0 0 0 0 0 0 0 0 0 0 0 0 0 0 0 0 0 0 0 0 0 0 0 0 0 0 0 0 0 0
0 0 -0 -0 0 0 0 0 0 0 0 0 0 0 0 0 0 0 0 0 0 0 0 0 0 0 0 1 1 1 1 1 0 0 0 0 0 0 0 0 0 0 0 0 0 0 0 0 0
0 -0 -0 -0 0 0 0 0 0 0 0 0 0 0 0 0 0 0 0 0 0 0 0 0 0 1 1 1 1 1 1 1 1 1 0 0 0 0 0 0 0 0 0 0 0 0 0 0 0
0 -0 -0 -0 0 0 0 0 0 0 0 0 0 0 0 0 0 0 0 0 0 0 0 0 0 1 1 1 1 1 1 1 1 1 1 1 0 0 0 0 0 0 0 0 0 0 0 0 0
0 -0 -0 -0 -0 0 0 0 0 1 1 0 0 0 0 0 0 0 0 0 0 0 0 0 0 0 0 0 1 1 1 1 1 1 1 0 0 0 0 0 0 0 0 0 0 0 0 0 0
0 -0 -0 -0 -0 0 0 0 0 1 1 0 0 0 0 0 0 1 0 0 0 0 -0 -0 0 0 0 0 0 0 0 1 1 0 0 0 0 0 0 0 0 0 0 0 0 0 0 0 0
0 -0 -0 -0 0 0 0 0 1 1 1 1 0 0 0 1 1 1 1 1 0 0 -0 -0 -0 0 0 0 0 0 0 0 0 0 0 0 0 0 0 0 0 0 0 0 0 0 0 0 0
0 0 -0 0 0 0 0 0 1 1 1 1 1 1 1 1 1 2 1 1 1 0 0 0 -0 0 0 0 0 0 0 0 0 0 0 0 0 0 0 0 0 0 0 0 1 1 1 1 1
0 0 0 0 0 0 0 1 1 1 2 2 2 2 2 2 2 2 2 2 1 1 0 0 0 0 0 0 0 0 0 0 0 1 1 1 1 1 1 0 0 1 1 1 1 1 1 1 1
0 0 0 0 0 0 0 1 1 2 2 2 2 3 3 3 3 3 3 2 2 1 1 1 1 0 0 0 0 0 0 0 1 1 1 1 1 1 1 1 1 1 1 1 1 1 1 1 1
0 0 0 0 0 0 1 1 2 2 3 3 3 3 4 4 4 4 3 3 2 2 2 1 1 1 1 1 1 0 1 1 1 1 1 1 1 1 1 1 1 1 1 1 1 1 1 1 1
0 0 0 0 0 0 1 2 2 3 3 3 4 4 4 4 4 3 3 2 2 2 2 1 1 1 1 1 1 1 1 1 1 1 1 1 1 1 1 1 1 1 1 1 1 1 0 0 0
0 0 0 0 0 0 1 2 2 2 2 3 3 3 3 3 3 3 2 2 2 2 2 1 1 1 1 1 1 1 1 1 1 1 1 1 1 1 0 0 0 0 0 0 0 0 0 0 0
0 0 0 0 0 0 1 1 1 1 2 2 2 2 2 2 2 2 1 1 1 1 1 1 1 1 1 1 1 1 1 1 1 0 0 1 0 0 0 0 0 0 0 0 0 0 0 0 0
0 0 0 0 0 0 1 1 1 1 1 1 1 1 1 1 1 1 1 1 1 0 0 0 0 0 0 0 0 0 0 0 0 0 0 0 0 0 0 0 0 0 0 0 0 0 0 0 0
0 0 0 0 0 0 0 1 1 0 0 1 1 1 1 0 0 0 0 0 0 0 0 0 0 0 0 0 0 0 0 0 0 0 0 0 0 0 0 0 0 0 0 0 0 0 0 0 0
0 0 0 0 0 0 0 0 0 0 0 0 0 0 0 0 0 0 0 0 0 0 0 0 0 0 0 0 0 0 0 0 0 0 0 0 0 0 0 0 0 0 0 0 0 0 0 0 0
0 0 0 0 0 0 0 0 0 0 0 0 0 0 0 0 0 0 0 0 0 0 0 0 0 0 0 0 0 0 0 0 0 0 0 0 0 0 0 0 0 0 0 0 0 0 0 0 0
0 0 0 0 0 0 0 0 0 0 0 0 0 0 0 0 0 0 0 0 0 0 0 0 0 0 0 0 0 0 0 0 0 0 0 0 0 0 0 0 0 0 0 0 0 0 0 0 0
0 0 0 0 0 0 0 0 0 0 0 0 0 0 0 0 0 0 0 0 0 0 0 0 0 0 0 0 0 0 0 0 0 0 0 0 0 0 0 0 0 0 0 0 0 0 0 0 0
0 0 0 0 0 0 0 0 0 0 0 0 0 0 0 0 0 0 0 0 0 0 0 0 0 0 0 0 0 0 0 0 0 0 0 0 0 0 0 0 0 0 0 0 0 0 0 0 0
0 0 0 0 0 0 0 0 0 0 0 0 0 0 0 0 0 0 0 0 0 0 0 0 0 0 0 0 0 0 0 0 0 0 0 0 0 0 0 0 0 0 0 0 0 0 0 0 0
0 0 0 0 0 0 0 0 0 0 0 0 0 0 0 0 0 0 0 0 0 0 0 0 0 0 0 0 0 0 0 0 0 0 0 0 0 0 0 0 0 0 0 0 0 0 0 0 0
0 0 0 0 0 0 0 0 0 0 0 0 0 0 0 0 0 0 0 0 0 0 0 0 0 0 0 0 0 0 0 0 0 0 0 0 0 0 0 0 0 0 0 0 0 0 0 0 0
0 0 0 0 0 0 0 0 0 -0 0 0 0 0 0 0 0 0 0 0 0 0 0 0 0 0 0 0 0 0 0 0 0 0 0 0 0 0 0 0 0 0 0 0 0 0 0 0 0
0 0 0 0 0 0 0 0 0 -0 -0 0 0 0 0 0 0 0 0 0 0 0 0 0 0 0 0 0 0 0 0 0 0 0 0 0 0 0 0 0 0 0 0 0 0 0 0 0 0
0 0 0 0 0 0 0 0 0 0 0 0 0 0 0 0 0 0 0 0 0 0 0 0 0 0 0 0 0 0 0 0 0 0 0 0 0 0 0 0 0 0 0 0 0 0 0 0 0
0 0 0 0 0 0 0 0 0 0 0 0 0 -0 -0 -0 0 0 0 0 0 0 0 0 0 0 0 0 0 0 0 0 0 0 0 0 0 0 0 0 0 0 0 0 0 0 0 0 0
0 0 0 0 0 0 0 0 0 0 0 0 -0 -0 0 0 0 0 0 0 0 0 0 0 0 0 0 0 0 0 0 0 0 0 0 0 0 0 0 0 0 0 0 0 0 0 0 0 0
Wind_Speed
13 9 4 2 1 2 7 8 4 2 4 7 10 10 8 7 5 5 3 13 17 15 12 14 15 15 14 14 14 14 14 14 13 13 13 13 13 13 12 12 11 11 11 10 10 10 10 10 10
10 8 3 2 1 3 7 6 1 5 9 11 11 9 8 8 9 10 7 13 17 15 10 12 16 15 14 14 14 14 14 13 13 13 13 12 12 12 12 11 10 10 10 10 10 10 10 10 9
10 6 3 2 3 4 6 4 3 8 9 9 6 6 6 5 10 8 10 16 14 12 9 13 17 16 15 14 13 14 14 13 13 13 12 12 12 12 11 11 10 10 10 9 10 10 10 10 9
5 2 1 2 8 9 9 11 2 9 9 10 8 6 5 4 6 11 17 17 15 11 9 12 17 16 15 14 14 14 13 13 13 12 12 12 12 12 11 11 10 10 9 9 10 10 10 10 9
2 3 1 4 8 8 10 7 5 11 7 10 12 6 4 6 17 21 18 17 16 12 8 10 17 16 15 14 13 13 13 12 12 12 11 11 11 11 11 10 10 10 10 10 10 11 10 10 10
1 2 1 4 8 9 6 6 15 16 13 10 9 6 3 7 16 18 17 14 14 14 10 9 16 16 14 13 13 12 12 11 10 10 10 9 9 9 9 9 10 10 10 10 10 11 10 11 10
3 1 3 4 7 8 5 5 11 11 9 5 6 6 2 4 10 15 15 14 12 12 10 7 7 10 13 13 12 11 11 10 9 9 9 9 9 9 9 9 10 10 10 10 11 11 11 11 10
4 2 3 4 5 6 5 6 8 10 8 5 5 7 4 4 9 13 14 12 11 9 8 6 5 5 5 6 10 11 10 10 9 9 9 9 10 10 10 9 10 12 12 12 12 12 12 11 10
1 2 3 4 4 5 5 7 9 9 11 7 5 6 8 12 16 15 12 10 9 8 6 5 5 5 5 5 8 9 10 10 9 8 10 9 5 5 5 9 11 13 14 14 13 13 12 11 10
4 3 8 7 5 4 4 5 6 9 11 9 9 10 13 13 15 15 12 10 9 8 6 5 5 5 5 6 5 3 4 4 5 4 5 4 4 4 7 8 14 15 16 15 14 12 11 8 3
4 7 9 11 12 4 2 7 7 9 9 7 10 11 13 16 14 13 13 11 8 7 8 5 4 3 4 3 4 3 2 3 4 5 5 4 4 4 4 3 5 7 11 7 8 7 4 3 3
5 10 10 11 11 4 2 6 9 10 9 10 12 13 15 16 13 13 12 9 8 8 7 5 4 3 3 3 2 2 2 2 3 5 6 4 3 4 4 3 3 3 3 4 4 3 4 4 4
8 12 14 13 7 0 10 11 12 11 12 14 17 17 16 15 13 12 10 9 8 8 6 5 4 3 3 2 1 1 1 2 3 3 4 5 4 4 3 3 3 3 3 4 4 5 6 6 5
7 6 6 4 2 4 13 10 9 8 10 14 15 13 13 12 11 11 9 8 7 6 5 4 4 4 4 3 2 1 1 1 0 1 2 3 3 3 3 3 3 3 3 3 4 5 5 5 5
4 6 6 6 5 4 10 11 8 7 9 11 12 11 11 10 9 8 7 6 6 5 5 5 5 6 6 5 4 3 3 2 2 1 1 1 2 3 3 2 3 3 3 4 3 4 4 5 5
4 4 3 5 5 3 9 7 7 6 9 8 8 9 8 7 7 7 6 5 5 5 5 5 7 7 7 6 6 4 4 4 3 2 1 1 0 1 1 2 3 3 3 3 3 3 3 4 5
3 1 1 3 4 4 7 5 5 6 8 6 5 6 6 5 5 5 5 5 5 5 5 5 6 6 6 6 5 5 4 4 4 3 2 1 0 0 1 1 2 2 2 3 3 3 3 4 5
4 2 1 1 4 5 6 5 5 5 5 3 3 4 5 5 5 5 5 5 5 5 5 5 5 5 5 5 5 5 6 5 4 4 3 3 1 1 0 1 2 2 2 3 3 4 4 3 4
4 2 1 1 3 6 7 7 6 4 3 2 1 3 4 4 5 6 6 6 5 4 5 4 4 3 3 3 3 3 3 4 4 4 5 5 4 3 2 1 2 2 2 4 4 4 4 4 2
3 2 1 1 4 5 6 7 3 0 2 5 5 5 5 4 5 6 6 5 5 5 5 5 5 4 3 2 2 1 1 1 2 3 4 5 6 6 4 3 3 2 2 3 4 3 3 3 3
2 6 6 5 5 6 6 2 2 2 3 6 7 6 6 8 8 8 7 7 6 6 7 6 5 5 4 3 2 1 2 3 3 4 4 5 6 6 6 6 4 3 2 2 3 3 4 4 3
2 7 11 11 8 2 3 3 5 3 3 5 6 7 8 8 8 8 8 8 7 7 6 6 6 5 4 4 3 2 1 1 3 3 3 6 6 6 6 6 5 4 3 2 2 1 1 2 3
5 7 8 9 7 4 2 2 4 1 3 5 7 9 10 9 9 8 8 7 6 6 6 5 5 4 3 3 3 2 2 2 3 3 4 5 5 5 6 6 6 4 2 3 2 1 1 1 2
9 7 6 6 5 3 2 1 5 3 5 5 7 9 10 9 7 5 4 4 3 3 4 4 4 3 3 3 2 3 3 3 3 4 3 4 4 4 6 6 5 5 3 3 3 2 2 1 2
5 6 4 5 5 1 2 1 7 6 7 8 9 8 8 6 5 4 4 4 3 4 4 4 4 3 3 2 2 3 3 3 3 3 3 3 3 3 5 5 4 4 5 5 4 3 4 3 3
1 8 6 3 3 1 2 3 8 6 5 6 7 5 4 4 4 5 5 5 4 4 4 4 3 3 2 2 3 2 2 2 2 3 3 3 3 3 4 4 4 5 5 6 5 4 4 4 4
3 1 6 8 5 3 2 4 7 5 2 4 5 5 5 5 6 5 5 5 4 4 4 4 4 3 3 3 2 2 2 2 3 3 3 3 3 4 4 4 5 5 5 5 5 3 5 4 4
4 3 6 6 5 3 2 3 5 5 6 5 5 6 6 6 5 5 5 5 4 4 4 4 4 3 3 2 2 2 3 3 3 3 4 4 4 4 5 5 5 5 5 5 4 4 5 5 5
3 3 5 4 6 6 3 5 7 9 8 7 7 7 8 7 6 5 5 4 4 4 4 3 3 3 3 3 3 3 4 4 4 4 5 5 5 5 5 6 6 6 6 6 5 5 6 5 5
3 4 6 5 0 4 4 5 4 8 7 8 8 7 7 7 6 6 5 4 4 4 3 4 4 4 4 4 4 4 4 5 5 5 6 6 6 6 6 6 6 7 7 6 6 7 7 6 7
Wind_Direction
151 143 134 103 77 246 257 251 236 54 58 63 70 76 75 55 89 125 101 140 136 142 144 142 138 135 134 134 135 135 133 131 129 128 127 127 128 129 131 134 137 140 141 142 144 144 142 140 138
147 146 134 96 212 279 269 251 178 108 123 107 80 72 69 73 89 107 111 136 137 138 135 138 135 133 133 134 136 138 138 138 138 139 139 140 141 142 144 146 149 151 151 154 156 155 154 152 151
159 170 131 163 238 233 267 290 113 98 91 89 75 46 49 85 111 123 136 138 132 131 130 139 136 134 134 135 136 139 141 144 146 149 151 152 154 156 157 159 162 163 163 165 166 165 164 164 165
153 143 341 235 251 251 256 269 217 101 68 67 84 53 27 30 107 129 138 139 133 129 130 141 137 136 136 137 139 141 145 149 153 158 161 163 166 168 169 171 175 177 179 179 178 176 174 174 178
96 132 239 272 265 268 272 254 119 94 90 88 89 81 30 31 113 131 141 143 136 132 136 142 141 142 143 143 143 146 150 154 159 164 169 173 176 180 181 184 188 192 194 193 190 186 185 185 188
130 156 220 278 288 298 311 93 96 95 106 100 95 93 45 101 126 141 141 139 138 139 141 144 148 148 149 149 149 151 155 160 165 172 178 184 188 193 196 201 204 207 208 202 196 193 192 193 196
171 178 237 272 299 317 352 63 90 102 103 100 112 96 62 109 140 139 134 132 134 139 141 142 149 153 156 156 157 159 163 168 175 182 189 196 203 208 213 217 220 219 218 212 206 202 203 203 204
179 105 296 296 305 316 344 53 86 94 89 94 98 115 142 136 123 125 123 124 127 132 140 141 140 142 149 160 168 170 175 180 187 195 201 208 215 220 224 223 228 228 224 220 216 213 212 213 214
153 65 270 263 284 296 333 66 64 70 91 79 69 102 126 122 116 117 117 115 124 133 141 143 149 155 160 169 182 182 188 194 198 205 213 216 220 229 237 237 235 236 233 228 223 221 221 222 226
132 177 237 233 253 289 346 61 92 83 76 77 78 78 93 105 112 116 120 117 120 130 148 161 162 172 177 186 178 191 201 201 204 203 216 215 210 221 234 237 242 241 240 236 232 232 231 232 231
195 217 245 263 265 259 67 53 54 102 78 99 111 101 92 89 90 101 104 105 110 117 126 133 139 149 162 168 165 194 210 210 217 217 216 220 219 225 235 231 251 247 242 234 229 231 226 222 215
244 258 260 267 272 263 119 96 66 69 100 103 99 97 90 89 93 101 103 98 97 99 105 109 100 96 104 121 154 187 205 216 218 223 219 211 217 221 222 226 232 232 223 212 212 205 207 220 229
249 261 271 272 280 37 91 91 91 76 91 91 90 88 88 90 93 94 93 89 87 87 86 85 89 87 87 93 110 133 231 229 221 220 217 207 213 226 230 233 231 226 218 208 208 207 206 208 220
255 278 298 319 62 80 102 88 81 81 88 88 86 87 90 91 95 96 95 92 86 86 88 82 67 62 66 63 53 39 4 338 283 221 223 206 207 220 225 232 240 241 230 218 210 208 208 210 215
305 329 348 13 43 82 95 67 81 100 92 91 94 96 96 96 96 97 103 103 96 85 80 87 73 51 46 38 32 30 18 22 16 333 279 213 206 220 223 233 243 246 239 229 218 217 211 215 220
352 11 2 345 23 50 89 101 117 105 93 92 100 102 101 98 102 108 111 109 106 96 80 66 68 58 49 39 31 24 18 19 3 347 342 342 241 219 221 241 252 252 243 225 218 215 215 221 223
4 343 285 333 18 48 85 119 119 93 90 92 105 112 111 111 112 120 124 127 127 120 107 83 68 63 55 44 35 25 17 11 352 342 336 335 13 137 184 247 262 265 253 239 235 221 212 220 225
264 254 304 340 358 46 74 89 83 70 81 97 117 122 123 129 151 154 150 148 142 134 122 106 86 77 67 48 34 22 12 359 350 343 326 317 307 336 346 265 280 277 261 255 243 236 225 223 223
215 176 176 297 41 55 65 63 52 46 39 336 180 139 140 160 176 174 173 165 154 144 136 135 119 102 84 63 50 31 355 342 344 348 343 338 327 326 321 292 295 282 258 256 248 235 234 235 209
228 166 198 52 75 75 79 70 62 42 231 241 208 178 177 189 188 189 189 184 180 175 168 159 150 136 123 121 131 158 246 304 319 335 347 347 338 324 318 293 276 268 272 286 271 236 231 236 198
230 175 184 146 89 66 93 87 210 233 235 225 200 184 189 195 197 197 192 193 189 184 181 172 165 152 145 138 110 46 16 354 347 338 334 330 326 319 314 300 278 258 236 262 277 254 229 241 234
218 187 162 152 129 149 188 196 235 200 233 207 191 188 201 207 204 198 193 193 194 193 180 168 164 159 160 147 139 154 171 254 267 279 301 316 324 325 323 317 298 263 234 238 264 281 236 231 250
173 152 140 138 125 100 26 142 267 176 220 224 208 201 208 211 207 201 193 189 186 176 165 163 161 169 180 173 169 171 206 237 269 298 320 323 324 332 338 333 329 305 268 247 248 276 296 236 246
127 95 74 73 85 65 295 177 273 219 211 218 220 215 212 212 208 194 175 153 149 149 146 154 162 189 207 200 196 193 222 253 288 311 320 319 318 324 333 338 341 335 318 287 273 266 271 265 275
101 95 43 19 37 321 293 289 262 247 233 215 221 223 217 204 181 159 144 137 143 148 155 162 168 199 225 219 228 231 236 247 262 271 273 292 306 311 315 332 334 334 323 308 294 284 275 266 268
134 129 146 183 168 195 302 271 270 278 255 217 218 217 193 158 138 139 146 145 148 149 152 159 172 203 231 236 257 263 260 236 242 250 257 272 272 274 287 307 316 318 320 321 313 294 279 269 262
55 52 153 124 100 105 247 294 303 299 265 209 197 162 150 142 141 143 146 149 154 154 166 175 181 208 241 253 265 269 252 254 265 274 275 282 283 287 304 308 311 310 312 313 314 298 287 281 264
123 124 71 82 114 111 195 228 226 219 206 183 155 148 154 153 151 151 158 167 173 177 186 188 188 203 224 230 236 238 249 260 265 274 283 283 284 288 301 303 303 302 302 301 303 297 291 287 275
20 42 92 102 134 138 184 252 222 196 186 167 165 166 168 168 167 173 180 183 184 190 194 198 204 213 228 233 241 251 254 257 261 262 265 263 264 270 275 278 283 287 289 289 290 289 291 287 285
170 170 137 126 158 134 142 260 278 165 163 155 168 179 180 176 180 184 188 194 205 213 218 219 224 230 235 237 241 247 253 257 259 259 259 256 256 257 256 259 264 268 274 274 275 278 285 278 278